Location: Atbuku
(36.4936°N, 30.4362°E)
Time: 04:29:54
(UTC+00:00)

EXPRESS MD2 - Pass Details

Date: 11 December 2025
Orbit: 258 x 2834 km, 49.8° (Epoch: 13 January)

Event Time Altitude Azimuth Distance (km) Brightness Sun altitude
Rises 15:55:33 0° 249° (WSW) 1,882 8.1 -14.2°
Reaches altitude 10° 15:57:14 10° 258° (WSW) 1,157 6.4 -14.5°
Maximum altitude 15:59:32 39° 331° (NNW) 557 3.4 -15.0°
Enters shadow 16:00:56 24° 25° (NNE) 896 4.0 -15.2°
